Radiation Dose at Monitoring Post of Fukushima Daini Nuclear Power Station
Date,Time,MP-1(microSv/h),MP-2(microSv/h),MP-3(microSv/h),MP-4(microSv/h),MP-5(microSv/h),MP-6(microSv/h),MP-7(microSv/h),Wind Direction,Wind Velocity(m/s),Rain
2019/05/20,00:00,0.198,0.188,0.302,0.285,0.276,0.151,0.093,south,5.4,No
2019/05/20,00:10,0.199,0.187,0.304,0.286,0.273,0.152,0.092,south,6.2,Yes
2019/05/20,00:20,0.199,0.187,0.303,0.285,0.275,0.150,0.093,south,5.9,No
2019/05/20,00:30,0.199,0.186,0.303,0.287,0.273,0.151,0.092,south,7.9,No
2019/05/20,00:40,0.198,0.187,0.302,0.286,0.275,0.151,0.092,south,8.5,No
2019/05/20,00:50,0.199,0.186,0.305,0.287,0.274,0.152,0.092,south,7.5,No
2019/05/20,01:00,0.198,0.186,0.301,0.286,0.274,0.151,0.092,south,9.5,No
2019/05/20,01:10,0.199,0.186,0.304,0.286,0.274,0.151,0.091,south,9.5,No
2019/05/20,01:20,0.199,0.186,0.302,0.285,0.276,0.151,0.092,south-southeast,9.3,No
2019/05/20,01:30,0.199,0.186,0.305,0.286,0.274,0.152,0.092,south,8.4,No
2019/05/20,01:40,0.198,0.186,0.302,0.285,0.274,0.150,0.092,south,10.3,No
2019/05/20,01:50,0.199,0.186,0.303,0.287,0.274,0.152,0.093,south-southeast,11.0,No
2019/05/20,02:00,0.197,0.186,0.302,0.285,0.274,0.151,0.091,south,11.8,No
2019/05/20,02:10,0.199,0.187,0.306,0.287,0.275,0.151,0.093,south,10.1,No
2019/05/20,02:20,0.197,0.186,0.302,0.284,0.274,0.150,0.091,south,10.4,No
2019/05/20,02:30,0.199,0.188,0.305,0.287,0.276,0.153,0.092,south,10.9,No
2019/05/20,02:40,0.199,0.187,0.303,0.285,0.273,0.151,0.092,south,9.5,No
2019/05/20,02:50,0.199,0.186,0.304,0.288,0.274,0.152,0.093,south,9.3,No
2019/05/20,03:00,0.198,0.186,0.300,0.285,0.273,0.150,0.092,south,10.1,No
2019/05/20,03:10,0.199,0.188,0.305,0.288,0.275,0.153,0.092,south,10.9,No
2019/05/20,03:20,0.198,0.186,0.301,0.285,0.273,0.151,0.091,south-southeast,9.8,No
2019/05/20,03:30,0.199,0.186,0.304,0.285,0.274,0.153,0.092,south,10.9,No
2019/05/20,03:40,0.198,0.186,0.303,0.286,0.273,0.150,0.092,south,11.5,No
2019/05/20,03:50,0.198,0.185,0.305,0.285,0.274,0.152,0.092,south,10.7,No
2019/05/20,04:00,0.198,0.187,0.302,0.285,0.274,0.151,0.092,south,10.3,No
2019/05/20,04:10,0.199,0.186,0.306,0.286,0.274,0.151,0.092,south,10.7,No
2019/05/20,04:20,0.199,0.186,0.302,0.285,0.273,0.150,0.092,south,8.5,No
2019/05/20,04:30,0.199,0.186,0.305,0.286,0.274,0.152,0.091,south,8.1,No
2019/05/20,04:40,0.198,0.188,0.303,0.286,0.274,0.151,0.092,south,8.1,No
2019/05/20,04:50,0.198,0.186,0.304,0.286,0.275,0.151,0.092,south,9.2,No
2019/05/20,05:00,0.198,0.187,0.303,0.285,0.272,0.151,0.092,south,6.8,No
2019/05/20,05:10,0.199,0.185,0.305,0.286,0.276,0.151,0.092,south,7.5,No
2019/05/20,05:20,0.198,0.187,0.303,0.285,0.274,0.152,0.092,south,7.8,No
2019/05/20,05:30,0.198,0.185,0.304,0.286,0.275,0.152,0.092,south,7.6,No
2019/05/20,05:40,0.198,0.188,0.303,0.286,0.273,0.151,0.091,south,7.3,No
2019/05/20,05:50,0.198,0.185,0.305,0.287,0.276,0.152,0.092,south,6.6,No
2019/05/20,06:00,0.200,0.187,0.304,0.285,0.273,0.152,0.092,south,6.8,No
2019/05/20,06:10,0.198,0.186,0.305,0.287,0.274,0.152,0.092,south,7.3,Yes
2019/05/20,06:20,0.199,0.187,0.301,0.285,0.274,0.152,0.091,south,8.5,No
2019/05/20,06:30,0.198,0.187,0.303,0.288,0.273,0.152,0.092,south,9.2,No
2019/05/20,06:40,0.200,0.187,0.303,0.284,0.275,0.152,0.092,south,8.8,No
2019/05/20,06:50,0.198,0.186,0.303,0.285,0.271,0.152,0.092,south,10.9,No
2019/05/20,07:00,0.200,0.186,0.302,0.285,0.276,0.152,0.092,south,11.0,No
2019/05/20,07:10,0.198,0.186,0.303,0.287,0.273,0.152,0.091,south,11.2,No
2019/05/20,07:20,0.199,0.186,0.303,0.286,0.273,0.151,0.091,south,12.8,No
2019/05/20,07:30,0.200,0.185,0.300,0.284,0.276,0.152,0.092,south,12.9,No
2019/05/20,07:40,0.196,0.187,0.303,0.286,0.273,0.151,0.091,south-southeast,11.8,No
2019/05/20,07:50,0.199,0.185,0.303,0.285,0.275,0.150,0.092,south,12.9,No
2019/05/20,08:00,0.199,0.185,0.302,0.284,0.275,0.152,0.092,south-southeast,12.6,No
2019/05/20,08:10,0.199,0.186,0.304,0.285,0.271,0.150,0.091,south,13.9,No
2019/05/20,08:20,0.199,0.185,0.301,0.284,0.276,0.152,0.091,south,12.5,No
2019/05/20,08:30,0.199,0.186,0.304,0.285,0.273,0.152,0.092,south,11.0,No
2019/05/20,08:40,0.199,0.187,0.305,0.286,0.271,0.151,0.092,south,11.3,No
2019/05/20,08:50,0.198,0.186,0.301,0.284,0.275,0.152,0.091,south,12.3,No
2019/05/20,09:00,0.197,0.185,0.303,0.282,0.273,0.152,0.092,south,12.5,No
2019/05/20,09:10,0.197,0.184,0.302,0.287,0.273,0.151,0.092,south-southeast,12.1,No
2019/05/20,09:20,0.199,0.187,0.301,0.287,0.272,0.152,0.092,south-southeast,12.6,No
2019/05/20,09:30,0.200,0.187,0.307,0.283,0.274,0.151,0.091,south,14.0,No
2019/05/20,09:40,0.196,0.185,0.303,0.284,0.274,0.151,0.093,south-southeast,12.0,No
2019/05/20,09:50,0.196,0.185,0.304,0.286,0.272,0.150,0.092,south-southeast,12.4,No
2019/05/20,10:00,0.197,0.187,0.305,0.285,0.273,0.151,0.092,south-southeast,13.7,No
2019/05/20,10:10,0.200,0.186,0.303,0.286,0.274,0.152,0.092,south-southeast,12.3,No
2019/05/20,10:20,0.199,0.186,0.301,0.284,0.273,0.151,0.092,south-southeast,12.7,No
2019/05/20,10:30,0.198,0.186,0.305,0.287,0.272,0.151,0.092,south-southeast,12.9,No
2019/05/20,10:40,0.197,0.187,0.304,0.288,0.274,0.152,0.093,south,13.4,No
2019/05/20,10:50,0.199,0.187,0.302,0.286,0.275,0.152,0.092,south-southeast,13.4,No
2019/05/20,11:00,0.199,0.185,0.300,0.284,0.273,0.151,0.092,south-southeast,12.1,No
2019/05/20,11:10,0.199,0.186,0.303,0.285,0.272,0.152,0.092,south-southeast,12.5,No
2019/05/20,11:20,0.197,0.188,0.305,0.288,0.272,0.152,0.092,south-southeast,11.8,No
2019/05/20,11:30,0.197,0.187,0.303,0.286,0.275,0.151,0.093,south-southeast,12.9,No
2019/05/20,11:40,0.197,0.185,0.302,0.284,0.275,0.151,0.092,south-southeast,14.0,No
2019/05/20,11:50,0.197,0.185,0.301,0.285,0.273,0.152,0.092,south-southeast,12.1,No
2019/05/20,12:00,0.200,0.186,0.303,0.288,0.271,0.152,0.092,south,12.6,No
2019/05/20,12:10,0.200,0.188,0.307,0.287,0.274,0.151,0.093,south-southeast,13.5,No
2019/05/20,12:20,0.197,0.186,0.305,0.285,0.276,0.151,0.093,south,13.2,No
2019/05/20,12:30,0.198,0.186,0.301,0.288,0.275,0.152,0.091,south,13.2,No
2019/05/20,12:40,0.196,0.186,0.303,0.289,0.273,0.153,0.092,south-southeast,10.6,No
2019/05/20,12:50,0.199,0.188,0.306,0.286,0.274,0.152,0.092,south,12.3,No
2019/05/20,13:00,0.200,0.187,0.304,0.286,0.277,0.152,0.092,south-southeast,12.6,No
2019/05/20,13:10,0.199,0.186,0.302,0.288,0.273,0.152,0.092,south-southeast,13.3,No
2019/05/20,13:20,0.198,0.186,0.303,0.287,0.272,0.152,0.093,south,10.9,No
2019/05/20,13:30,0.197,0.188,0.306,0.284,0.273,0.151,0.092,south-southeast,11.4,No
2019/05/20,13:40,0.200,0.187,0.304,0.287,0.276,0.152,0.092,south-southeast,11.8,No
2019/05/20,13:50,0.200,0.186,0.303,0.288,0.274,0.153,0.093,south-southeast,10.4,No
2019/05/20,14:00,0.199,0.189,0.307,0.285,0.272,0.151,0.093,south,10.9,No
2019/05/20,14:10,0.199,0.186,0.305,0.290,0.278,0.152,0.092,south-southeast,11.5,No
2019/05/20,14:20,0.201,0.186,0.304,0.287,0.275,0.152,0.092,south-southeast,10.7,No
2019/05/20,14:30,0.199,0.187,0.307,0.286,0.272,0.152,0.092,south-southeast,11.3,No
2019/05/20,14:40,0.198,0.187,0.304,0.288,0.272,0.151,0.092,south-southeast,10.1,No
2019/05/20,14:50,0.199,0.187,0.301,0.287,0.276,0.151,0.092,south-southeast,9.8,No
2019/05/20,15:00,0.200,0.188,0.306,0.287,0.274,0.150,0.093,south,10.7,No
2019/05/20,15:10,0.200,0.187,0.306,0.288,0.272,0.151,0.092,south-southeast,10.4,No
2019/05/20,15:20,0.198,0.187,0.303,0.286,0.276,0.152,0.093,south-southeast,10.7,No
2019/05/20,15:30,0.200,0.188,0.306,0.289,0.274,0.152,0.092,south,13.3,No
2019/05/20,15:40,0.200,0.187,0.305,0.288,0.273,0.151,0.092,south,13.7,No
2019/05/20,15:50,0.199,0.188,0.305,0.288,0.276,0.152,0.092,south-southeast,12.8,No
2019/05/20,16:00,0.200,0.187,0.307,0.286,0.274,0.152,0.092,south-southeast,13.3,No
2019/05/20,16:10,0.199,0.187,0.305,0.289,0.276,0.152,0.092,south,12.3,No
2019/05/20,16:20,0.200,0.188,0.307,0.287,0.275,0.152,0.092,south,12.2,No
2019/05/20,16:30,0.199,0.188,0.304,0.288,0.275,0.152,0.092,south-southeast,12.9,Yes
2019/05/20,16:40,0.199,0.187,0.307,0.288,0.275,0.153,0.093,south,13.3,No
2019/05/20,16:50,0.200,0.188,0.305,0.288,0.275,0.152,0.093,south,14.4,No
2019/05/20,17:00,0.199,0.189,0.307,0.287,0.275,0.152,0.092,south,13.9,No
2019/05/20,17:10,0.201,0.187,0.303,0.288,0.274,0.151,0.092,south,12.9,Yes
2019/05/20,17:20,0.198,0.187,0.307,0.287,0.277,0.153,0.093,south,12.6,Yes
2019/05/20,17:30,0.201,0.186,0.304,0.289,0.273,0.151,0.091,south-southeast,13.7,No
2019/05/20,17:40,0.199,0.188,0.307,0.288,0.277,0.152,0.093,south,13.2,No
2019/05/20,17:50,0.200,0.187,0.306,0.287,0.275,0.151,0.092,south,13.9,No
2019/05/20,18:00,0.198,0.188,0.306,0.289,0.277,0.152,0.092,south,13.2,No
2019/05/20,18:10,0.199,0.186,0.304,0.287,0.274,0.151,0.092,south,11.7,Yes
2019/05/20,18:20,0.198,0.188,0.306,0.289,0.275,0.152,0.092,south,12.3,Yes
2019/05/20,18:30,0.200,0.187,0.305,0.287,0.275,0.152,0.093,south,10.7,No
2019/05/20,18:40,0.200,0.187,0.306,0.289,0.277,0.152,0.093,south,11.0,Yes
2019/05/20,18:50,0.199,0.187,0.305,0.286,0.274,0.152,0.092,south,12.0,Yes
2019/05/20,19:00,0.201,0.188,0.306,0.289,0.274,0.152,0.094,south,10.3,No
2019/05/20,19:10,0.198,0.187,0.305,0.287,0.275,0.153,0.093,south,10.7,No
2019/05/20,19:20,0.200,0.188,0.306,0.289,0.275,0.152,0.092,south,11.4,No
2019/05/20,19:30,0.199,0.187,0.305,0.286,0.277,0.152,0.092,south,12.6,No
2019/05/20,19:40,0.199,0.188,0.305,0.289,0.275,0.152,0.092,south,10.3,No
2019/05/20,19:50,0.199,0.187,0.306,0.286,0.276,0.152,0.093,south,10.3,Yes
2019/05/20,20:00,0.200,0.189,0.306,0.289,0.274,0.151,0.093,south,9.2,No
2019/05/20,20:10,0.199,0.187,0.305,0.287,0.275,0.153,0.093,south,10.0,No
2019/05/20,20:20,0.200,0.188,0.304,0.288,0.273,0.152,0.092,south,8.4,No
2019/05/20,20:30,0.199,0.187,0.305,0.287,0.276,0.151,0.092,south,8.6,Yes
2019/05/20,20:40,0.200,0.187,0.305,0.290,0.275,0.153,0.093,south,9.3,No
2019/05/20,20:50,0.200,0.187,0.306,0.287,0.276,0.152,0.092,south,9.5,No
2019/05/20,21:00,0.198,0.189,0.306,0.288,0.274,0.151,0.093,south,8.2,No
2019/05/20,21:10,0.199,0.188,0.306,0.288,0.276,0.152,0.092,south,8.2,No
2019/05/20,21:20,0.200,0.188,0.305,0.289,0.274,0.152,0.093,south,6.6,No
2019/05/20,21:30,0.200,0.188,0.307,0.286,0.276,0.151,0.093,south,11.0,No
2019/05/20,21:40,0.199,0.188,0.305,0.288,0.274,0.151,0.092,south,12.6,No
2019/05/20,21:50,0.200,0.187,0.306,0.287,0.274,0.152,0.094,south,10.4,No
2019/05/20,22:00,0.199,0.187,0.304,0.288,0.274,0.152,0.092,south,10.4,No
2019/05/20,22:10,0.200,0.189,0.305,0.286,0.275,0.152,0.092,south,8.4,No
2019/05/20,22:20,0.200,0.187,0.304,0.287,0.275,0.153,0.092,south,10.9,No
2019/05/20,22:30,0.201,0.187,0.306,0.287,0.274,0.152,0.092,south,11.5,No
2019/05/20,22:40,0.197,0.188,0.304,0.289,0.275,0.153,0.092,south,11.4,No
2019/05/20,22:50,0.201,0.188,0.306,0.287,0.274,0.151,0.093,south,10.4,No
2019/05/20,23:00,0.199,0.188,0.304,0.289,0.275,0.152,0.092,south,9.8,No
2019/05/20,23:10,0.200,0.187,0.306,0.288,0.274,0.152,0.092,south,13.2,No
2019/05/20,23:20,0.199,0.187,0.305,0.289,0.276,0.152,0.092,south,12.4,No
2019/05/20,23:30,0.200,0.189,0.307,0.286,0.273,0.151,0.092,south,12.6,No
2019/05/20,23:40,0.199,0.187,0.305,0.289,0.276,0.152,0.092,south,11.7,No
2019/05/20,23:50,0.201,0.187,0.306,0.287,0.274,0.152,0.092,south,11.8,Yes
